Theta_e
335 335 336 336 341 342 346 347 345 344 345 346 346 347 346 346 346 345 343 339 339 342 342 343 342 343 343 348 346 349 348 345 344 344 346 346 345 344 342 342 342 341 340
332 333 338 339 343 342 341 343 341 345 347 345 345 347 348 347 346 345 344 344 340 340 341 341 340 340 344 343 344 343 343 345 346 345 348 346 344 341 342 340 341 338 339
335 338 337 341 343 343 341 342 346 346 346 347 348 347 347 347 347 346 344 342 343 340 337 340 341 341 342 342 342 342 341 340 341 342 345 345 344 342 342 343 340 342 338
340 338 339 341 343 345 343 345 346 347 346 347 348 347 348 348 348 347 347 346 345 344 342 339 341 341 342 342 342 341 340 341 340 341 345 344 344 344 342 343 341 340 337
341 341 340 343 345 347 344 344 345 344 346 345 348 348 346 347 349 348 348 348 347 345 346 345 342 342 342 342 342 342 341 340 342 342 344 346 343 344 342 343 342 339 339
344 344 344 344 344 345 345 344 343 341 343 343 345 347 348 346 348 348 348 348 347 346 347 347 347 345 343 343 344 344 344 344 341 343 344 346 344 343 343 342 343 342 338
346 346 348 348 344 346 344 344 346 345 345 345 343 347 347 348 348 348 347 346 347 347 347 347 348 348 348 344 343 344 344 345 345 342 344 347 345 341 344 341 343 343 337
345 346 346 345 345 344 345 345 345 345 346 347 343 346 349 346 346 347 347 346 346 345 345 345 345 346 348 348 348 346 346 346 345 344 343 344 345 338 344 340 342 341 336
345 346 348 346 345 344 345 345 345 345 349 346 344 344 349 346 345 341 341 342 343 343 343 344 345 345 346 347 348 348 346 345 346 345 344 343 343 337 346 343 341 340 336
347 347 346 345 344 343 344 345 346 345 346 347 345 343 346 346 347 347 345 345 344 344 345 344 344 346 347 346 346 347 347 346 346 347 346 343 343 337 339 343 342 339 336
346 346 346 346 342 346 346 347 347 350 349 346 346 344 343 343 344 347 349 346 345 345 344 343 342 343 343 345 349 349 345 346 346 346 347 345 345 344 336 337 339 339 337
348 348 347 346 336 340 347 348 349 349 351 351 348 346 344 343 347 345 345 347 347 344 344 343 343 344 344 344 345 347 345 346 347 347 348 347 347 346 344 339 338 338 337
351 352 348 347 343 341 342 341 345 350 349 349 347 349 347 346 347 347 347 346 347 345 346 345 343 344 345 344 344 345 347 346 345 346 349 347 347 348 347 344 341 341 340
350 347 348 348 347 346 344 341 344 347 350 351 349 346 347 348 347 347 347 347 349 348 347 346 344 345 345 345 345 344 347 346 347 347 349 348 348 348 348 348 346 343 343
350 350 350 350 347 347 349 347 344 343 346 348 350 348 351 350 349 348 348 347 348 351 351 348 343 345 348 348 346 347 349 350 346 346 347 348 349 348 348 349 349 349 346
346 345 348 349 348 350 350 350 350 351 352 352 352 352 351 349 347 346 348 349 348 348 351 348 347 345 346 345 346 345 348 346 346 347 347 348 348 348 349 350 350 350 350
347 337 341 349 348 350 345 344 350 350 349 347 346 346 345 345 342 348 350 348 345 345 347 347 347 347 348 349 347 348 347 347 348 346 346 348 348 348 348 349 349 349 350
340 349 347 347 347 342 340 342 343 342 341 341 341 341 340 341 347 347 346 347 346 345 344 348 348 349 348 347 348 347 347 343 346 347 344 346 346 348 348 348 348 348 347
335 345 346 344 341 342 339 334 331 335 334 333 333 334 337 340 343 341 342 343 344 345 344 344 346 348 348 347 347 348 348 349 349 347 345 344 346 346 346 348 348 348 347
343 343 342 338 332 330 330 333 335 334 332 331 332 332 332 335 338 340 341 342 342 343 345 344 343 343 346 348 349 348 346 347 349 347 347 347 348 347 345 346 348 347 348
337 334 333 332 333 336 337 339 336 333 333 333 332 332 332 332 332 336 340 339 340 340 338 341 341 341 342 344 347 349 350 346 346 349 347 348 349 350 349 348 348 348 346
336 335 337 338 338 339 338 333 330 331 332 332 331 331 331 332 332 333 333 338 338 339 339 338 337 337 340 341 344 347 348 349 347 345 348 346 348 349 350 352 349 347 346
333 333 333 334 334 334 332 330 328 327 328 329 329 330 330 328 329 331 334 336 338 337 336 337 337 337 338 340 343 344 346 347 345 345 349 347 346 349 347 348 347 345 346
325 325 326 326 327 327 326 325 323 323 325 326 328 328 329 329 331 333 333 333 335 338 339 339 338 337 337 338 342 344 344 347 346 347 349 349 346 347 347 347 347 345 343
318 318 318 319 319 319 318 316 316 319 321 322 323 325 327 328 328 329 331 333 332 334 336 337 337 336 334 332 336 342 343 345 347 346 348 349 347 348 348 347 348 346 343
312 312 313 313 313 314 315 315 314 317 319 321 322 323 324 324 325 325 328 332 333 333 336 336 337 336 334 334 334 337 342 343 344 345 346 349 348 348 349 348 349 348 348
Wind_Speed
14 15 16 15 11 9 10 10 10 10 10 11 10 10 11 11 10 10 11 14 15 14 14 15 16 17 17 17 15 14 13 13 12 14 11 10 9 9 8 8 9 7 6
17 18 17 14 11 10 12 9 11 11 11 11 11 11 11 11 10 11 11 12 15 16 18 19 20 20 17 18 18 16 14 13 14 14 14 12 10 11 9 9 9 8 7
17 15 13 13 11 13 13 12 10 11 11 11 12 11 11 12 11 12 12 12 11 15 15 14 14 16 19 20 19 17 16 15 15 14 14 14 13 11 11 10 10 9 8
12 13 13 11 12 15 14 13 10 11 11 12 11 11 10 10 11 11 11 12 12 11 12 14 12 14 16 19 19 19 17 16 16 16 14 15 14 12 12 12 10 9 9
9 8 9 10 11 11 12 14 14 12 11 12 10 10 11 11 10 10 11 11 12 13 12 14 14 14 15 18 19 19 18 18 17 17 15 15 16 14 13 13 12 10 10
9 11 12 14 14 15 14 13 12 14 14 12 9 11 11 12 12 12 12 11 11 12 13 14 13 14 17 19 19 18 18 19 19 18 16 17 17 15 14 14 13 12 11
12 13 12 13 16 16 16 14 11 12 11 13 7 9 11 12 13 12 12 13 13 13 13 12 13 14 15 18 20 20 20 19 19 19 17 18 18 17 16 15 14 13 13
15 15 17 18 17 18 18 18 14 9 9 10 5 4 4 6 10 14 14 15 14 13 14 15 16 17 16 15 16 17 16 18 16 16 16 17 19 18 17 15 15 15 14
16 16 16 16 12 17 21 23 16 11 8 7 11 7 3 3 4 3 5 8 9 11 11 12 15 17 18 18 18 18 20 16 17 15 17 16 17 18 18 17 17 17 16
14 15 16 15 10 13 17 18 17 12 10 10 7 10 10 5 3 4 3 3 7 9 10 11 10 11 14 17 19 20 19 16 16 15 16 17 17 18 18 18 17 17 17
9 12 10 10 9 11 13 13 12 11 11 12 9 9 8 8 8 8 7 5 5 8 11 13 12 12 11 14 16 19 20 19 18 17 16 16 16 18 19 18 18 17 17
9 12 10 9 4 5 7 9 10 10 9 10 13 13 14 7 6 5 4 11 11 13 11 11 11 13 14 15 19 21 22 18 16 16 20 19 18 17 19 18 18 17 17
8 7 10 11 10 9 7 8 9 7 8 10 13 11 11 12 11 11 11 12 11 14 10 12 14 13 14 16 18 20 21 21 18 17 19 20 20 19 20 20 20 18 17
9 7 8 8 8 7 6 5 5 7 7 9 12 13 12 13 13 13 14 13 10 12 15 15 12 11 10 11 14 19 18 20 18 18 19 21 21 19 19 20 21 22 21
13 8 9 8 6 4 2 2 4 5 6 6 10 10 11 13 14 15 17 17 15 8 11 11 7 7 3 2 8 13 15 16 17 19 21 22 23 22 22 21 21 21 22
11 18 13 9 7 4 2 1 2 3 4 5 6 7 8 10 13 14 13 16 18 20 11 12 13 14 11 10 10 11 15 19 19 18 19 22 23 22 22 22 22 23 22
13 12 26 11 7 5 4 2 3 3 4 5 7 8 10 12 15 14 14 16 18 18 15 23 19 17 19 15 14 12 13 17 17 20 19 19 23 22 21 22 21 22 23
15 12 16 10 8 6 5 4 4 4 6 8 10 10 14 13 12 12 10 12 16 18 16 19 20 20 18 14 13 15 13 15 15 18 21 23 22 22 21 22 21 20 21
25 24 8 8 7 7 8 7 7 5 5 8 11 13 14 15 16 17 17 16 15 14 15 16 19 20 18 17 16 15 15 15 16 17 20 21 23 26 25 23 22 21 21
17 12 7 9 9 9 9 8 7 7 9 10 12 13 15 18 21 21 21 20 20 18 15 15 15 17 19 20 18 19 19 17 17 16 17 19 20 25 25 24 22 21 21
11 10 10 10 8 9 7 7 7 10 12 14 15 17 19 20 24 26 24 22 21 21 19 18 18 17 17 17 19 19 19 18 17 16 17 18 16 17 22 25 24 22 21
7 7 7 8 8 8 10 10 12 13 16 17 21 21 22 24 25 26 29 31 29 24 22 20 20 19 16 19 18 20 20 20 14 15 17 19 18 21 20 20 24 24 22
9 8 8 8 10 11 15 17 20 19 19 22 22 24 24 26 25 24 25 28 31 32 31 25 24 23 21 19 19 21 23 21 21 18 12 16 17 20 22 24 26 26 26
11 13 13 14 15 17 22 25 26 23 23 23 24 25 26 26 25 25 25 27 29 28 27 25 26 25 24 21 21 21 23 21 21 21 16 17 20 22 20 21 23 26 26
14 15 16 17 17 20 22 25 25 22 24 25 24 24 25 26 25 29 27 28 29 31 29 29 30 30 27 26 24 20 19 19 14 21 19 22 20 19 19 21 21 24 28
14 16 18 18 19 20 21 21 20 20 22 23 24 25 25 25 27 30 28 27 29 30 28 26 24 21 23 24 26 26 23 20 16 8 20 14 18 15 16 19 21 19 19
Wind_Direction
257 270 274 271 282 233 227 233 233 230 227 228 228 225 228 229 230 238 242 244 237 240 244 243 247 249 264 251 255 250 254 255 256 266 255 257 257 267 265 268 269 266 274
266 272 272 261 262 236 228 243 242 238 228 223 225 225 233 237 236 239 243 242 240 239 252 248 257 255 255 252 254 257 256 256 257 258 260 260 255 265 263 271 272 277 271
268 267 263 257 254 246 251 257 250 243 231 227 232 235 236 240 241 242 244 243 244 248 249 248 250 253 247 250 253 259 261 260 262 259 255 258 257 256 260 259 268 274 275
262 254 254 250 262 258 249 248 248 243 232 227 235 237 243 242 246 244 243 240 239 235 250 249 253 252 248 248 250 257 262 265 270 268 260 253 259 253 258 261 267 273 276
255 247 243 245 254 247 251 256 245 247 245 239 234 246 242 246 255 249 249 244 233 234 239 254 254 255 245 250 254 256 258 259 265 267 260 254 256 248 252 256 256 264 266
251 249 247 253 255 255 252 261 254 248 252 253 263 252 248 248 252 250 249 252 242 241 242 247 251 253 250 250 255 255 257 261 259 263 260 248 250 246 247 252 254 263 261
250 252 252 251 256 260 264 258 258 255 251 248 253 264 256 250 252 250 251 254 252 246 242 246 254 255 254 255 252 253 254 258 261 258 258 246 250 242 243 248 250 255 256
249 252 257 265 270 276 277 267 262 266 259 225 242 257 274 248 254 250 250 254 252 250 253 252 251 253 252 252 255 256 252 249 253 252 252 251 247 244 241 243 246 250 251
251 253 258 264 273 288 287 274 264 262 266 237 226 240 235 255 330 249 246 253 252 254 256 256 252 250 252 254 255 258 255 243 239 245 248 253 250 245 241 243 242 243 244
258 258 273 273 256 253 270 268 254 260 257 259 253 244 254 284 292 280 245 291 273 253 265 255 264 258 255 252 250 246 251 250 241 241 242 244 252 247 238 242 240 241 240
267 263 265 268 268 251 253 260 241 244 245 250 248 264 283 254 249 252 287 319 295 271 274 266 253 264 265 257 250 247 245 240 243 239 236 241 243 250 241 236 238 240 239
278 268 252 243 266 254 257 263 251 252 245 249 249 245 241 239 269 220 248 284 286 289 278 265 262 264 266 262 246 239 243 238 234 239 236 236 240 247 251 243 239 238 239
286 274 262 246 254 281 290 258 243 260 257 261 265 258 252 254 257 257 263 276 281 295 281 268 261 264 270 260 242 238 239 239 238 233 232 232 237 241 248 248 244 242 239
274 266 268 262 257 252 277 286 238 234 249 257 260 266 273 269 258 255 254 271 274 275 283 263 260 261 265 251 228 232 234 238 231 226 229 229 230 235 243 248 246 245 244
281 269 258 251 234 220 251 234 241 260 271 255 266 275 269 276 272 274 262 255 256 272 276 282 268 233 180 217 237 241 238 239 236 231 228 228 225 229 237 246 248 246 245
328 303 287 224 199 201 201 258 250 268 274 288 284 289 286 283 283 282 266 256 245 256 269 269 278 270 269 272 267 259 241 237 236 235 231 227 219 226 234 241 247 248 244
325 228 261 202 190 205 198 227 232 233 265 277 284 287 282 283 281 277 270 267 245 239 252 272 270 273 271 276 267 262 252 237 238 236 234 228 223 224 230 239 242 245 245
339 239 191 199 195 205 218 215 245 266 281 290 290 291 293 289 276 275 273 269 265 251 243 268 276 274 268 266 270 265 257 245 243 244 235 234 229 227 226 233 237 240 242
261 263 207 201 211 223 239 245 250 249 279 291 291 290 287 282 276 274 274 270 272 270 254 251 275 279 273 274 268 262 258 259 253 251 243 239 238 233 232 231 232 235 242
260 244 225 237 239 241 245 244 249 277 287 287 290 292 288 280 276 271 269 269 270 269 273 262 262 277 282 276 266 266 258 255 256 252 247 236 242 236 234 229 226 229 239
249 249 251 250 248 249 261 260 271 283 286 294 295 294 293 286 276 270 267 268 264 262 262 268 267 266 267 279 268 268 263 260 254 254 251 243 234 234 230 223 226 230 236
266 272 284 287 284 273 259 274 292 297 295 294 292 292 291 290 285 280 273 265 257 259 257 258 260 264 269 268 273 276 271 263 258 254 239 246 236 230 226 222 230 235 243
332 323 318 312 302 296 292 297 301 304 295 289 285 288 288 288 284 277 275 273 266 261 254 252 258 262 266 261 257 258 263 259 259 251 242 247 233 240 237 236 238 241 244
336 328 320 315 312 302 297 299 302 302 292 284 282 283 281 281 280 277 274 271 266 261 257 252 248 251 261 264 263 258 258 257 260 260 244 253 241 246 248 247 246 247 249
328 321 314 307 303 298 298 303 303 295 287 284 284 280 276 277 277 275 277 273 268 263 260 257 253 253 257 258 252 260 258 254 243 254 243 242 251 251 247 249 248 252 250
329 323 315 309 304 303 303 305 309 306 301 299 294 286 281 279 280 283 283 273 268 261 259 255 256 262 262 254 253 243 244 243 244 243 240 227 245 240 245 248 250 246 254